Location: Gazon
(48.1318°N, 1.2708°W)
Time: 02:39:20
(UTC+00:00)

Cosmos 1634 Rocket - Pass Details

Date: 18 September 2020
Orbit: 961 x 991 km, 82.9° (Epoch: 29 October)

Event Time Altitude Azimuth Distance (km) Brightness Sun altitude
Exits shadow 21:19:00 36° 220° (SW) 1,478 4.8 -29.5°
Maximum altitude 21:21:26 60° 283° (WNW) 1,100 4.4 -29.8°
Drops below altitude 10° 21:27:34 10° 3° (N) 2,717 6.8 -30.6°
Sets 21:30:09 0° 7° (N) 3,672 7.5 -30.9°
